{"data":{"norad_id":63248,"intl_designator":"2025-052AQ","name":"LEMUR-2-LIA-MARTIN","alt_names":[],"object_type":"PAYLOAD","status":"ACTIVE","operator":null,"country":"US","launch_date":"2025-03-15","launch_site_code":"AFWTR","launch_vehicle":null,"mission":null,"orbit_class":"UNKNOWN","rcs_meters":null,"size_class":null,"mass_kg":null,"dimensions":null,"purposes":["earth_obs"],"wikipedia_slug":null,"has_3d_model":false,"image_url":null,"decayed_at":null,"tle_current":{"epoch":"2026-09-19T23:37:22.330272Z","epoch_age_seconds":58925,"freshness":"FRESH","line1":"1 63248U 25052AQ  26262.98428623  .00003463  00000+0  29463-3 0  9999","line2":"2 63248  97.6741 153.9240 0001876 180.9896 179.1324 14.98464251 82872","mean_motion":14.98464251,"eccentricity":0.0001876,"inclination_deg":97.6741,"raan_deg":153.924,"arg_perigee_deg":180.9896,"mean_anomaly_deg":179.1324,"bstar":0.00029463,"rev_number":8287,"period_min":96.098388669534,"perigee_km":570.33698348951,"apogee_km":572.94454010574,"semimajor_km":6949.7777617976,"source":"CELESTRAK","updated_at":"2026-09-20T09:00:34.874325Z"}}}